Weather History for Price, UT

Change the Weather History Date:

Monday, August 25, 2014

  Actual Average Record
Temperature  
Mean Temperature 66 °F -  
Max Temperature 80 °F 81 °F 94 °F (1974)
Min Temperature 53 °F 55 °F 45 °F (1975)
Growing Degree Days 16 (Base 50)    
Moisture  
Dew Point 49 °F    
Average Humidity 58    
Maximum Humidity 83    
Minimum Humidity 28    
Precipitation  
Precipitation 0.17 in - - ()
Sea Level Pressure  
Sea Level Pressure 30.01 in    
Wind  
Wind Speed 9 mph (East)    
Max Wind Speed 22 mph    
Max Gust Speed 36 mph    
Visibility 9 miles    
Events Rain , Thunderstorm    
Averages and records for this station are not official NWS values.
T = Trace of Precipitation, MM = Missing Value Source: NWS Daily Summary

Daily Weather History Graph

Daily Weather History Graph

Search for Another Location

Airport:

Trip Planner

Search our weather history database for the weather conditions in past years. The results will help you decide how hot, cold, wet, or windy it might be!

Date:

Astronomy

Aug. 25, 2014 Rise Set
Actual Time 6:44 AM MDT 8:04 PM MDT
Civil Twilight 6:16 AM MDT 8:32 PM MDT
Nautical Twilight 5:43 AM MDT 9:06 PM MDT
Astronomical Twilight 5:07 AM MDT 9:41 PM MDT
Moon 6:53 AM MDT (8/25) 7:57 PM MDT (8/25)
Length of Visible Light 14h 15m
Length of Day
13h 19m
New Moon, 0% of the Moon is Illuminated
Aug 25
New Moon
Sep 2
First Quarter
Sep 8
Full
Sep 15
Last Quarter
Sep 24
New

Hourly Weather History & Observations

Time (MDT) Temp. Dew Point Humidity Pressure Visibility Wind Dir Wind Speed Gust Speed Precip Events Conditions
12:53 AM 60.1 °F 51.1 °F 72% 29.93 in 10.0 mi NW 8.1 mph - N/A   Overcast
1:39 AM 61.0 °F 48.9 °F 64% 30.11 in 10.0 mi North 11.5 mph - N/A Thunderstorm Mostly Cloudy
1:53 AM 60.1 °F 48.0 °F 64% 29.94 in 10.0 mi NW 10.4 mph - N/A Thunderstorm Overcast
2:09 AM 60.1 °F 48.0 °F 64% 30.12 in 10.0 mi North 11.5 mph - N/A   Overcast
2:53 AM 57.9 °F 46.0 °F 65% 29.93 in 10.0 mi North 12.7 mph - N/A   Scattered Clouds
3:53 AM 59.0 °F 44.1 °F 58% 29.92 in 10.0 mi North 9.2 mph - N/A   Clear
4:53 AM 55.0 °F 45.0 °F 69% 29.94 in 10.0 mi Calm Calm - N/A   Clear
5:53 AM 55.0 °F 45.0 °F 69% 29.97 in 10.0 mi Calm Calm - N/A   Clear
6:53 AM 53.1 °F 45.0 °F 74% 30.00 in 10.0 mi NNE 4.6 mph - N/A   Clear
7:53 AM 60.8 °F 44.6 °F 55% 30.16 in 10.0 mi ENE 8.1 mph - N/A   Clear
8:53 AM 63.0 °F 46.0 °F 54% 29.99 in 10.0 mi ESE 6.9 mph - N/A   Clear
9:53 AM 64.9 °F 48.9 °F 56% 30.00 in 10.0 mi East 5.8 mph - N/A   Clear
10:53 AM 66.9 °F 48.0 °F 51% 30.00 in 10.0 mi ESE 8.1 mph - N/A   Clear
11:53 AM 70.0 °F 46.9 °F 44% 29.99 in 10.0 mi South 8.1 mph - N/A   Clear
12:53 PM 72.0 °F 48.0 °F 43% 29.96 in 10.0 mi ESE 5.8 mph - N/A   Clear
1:53 PM 75.0 °F 48.0 °F 38% 29.91 in 10.0 mi SE 13.8 mph 17.3 mph N/A   Clear
2:13 PM 77.0 °F 46.9 °F 34% 30.11 in 10.0 mi South 11.5 mph 19.6 mph N/A Thunderstorm Clear
2:42 PM 78.1 °F 46.9 °F 33% 30.11 in 10.0 mi South 13.8 mph - N/A   Clear
2:53 PM 77.0 °F 46.9 °F 34% 29.89 in 10.0 mi SE 15.0 mph - N/A   Partly Cloudy
3:04 PM 75.9 °F 46.0 °F 35% 30.10 in 10.0 mi SSE 13.8 mph 24.2 mph N/A Thunderstorm Scattered Clouds
3:22 PM 75.9 °F 46.9 °F 36% 30.09 in 10.0 mi South 12.7 mph - N/A   Mostly Cloudy
3:38 PM 75.9 °F 46.9 °F 36% 30.08 in 10.0 mi SE 18.4 mph - N/A Thunderstorm Mostly Cloudy
3:53 PM 78.1 °F 46.9 °F 33% 29.84 in 10.0 mi SSE 18.4 mph - N/A Thunderstorm Mostly Cloudy
4:32 PM 77.0 °F 46.0 °F 33% 30.05 in 10.0 mi South 18.4 mph 24.2 mph N/A   Clear
4:46 PM 75.0 °F 39.9 °F 28% 30.03 in 2.5 mi South 21.9 mph 35.7 mph N/A Thunderstorm Haze
4:53 PM 73.9 °F 39.9 °F 29% 29.85 in 4.0 mi WSW 10.4 mph 32.2 mph 0.00 in Rain , Thunderstorm Light Rain
5:15 PM 66.9 °F 48.9 °F 52% 30.09 in 1.8 mi North - - 0.04 in Rain , Thunderstorm Light Rain
5:25 PM 61.0 °F 53.1 °F 75% 30.05 in 2.0 mi ENE 10.4 mph - 0.06 in Rain , Thunderstorm Light Thunderstorms and Rain
5:32 PM 62.1 °F 54.0 °F 75% 30.07 in 9.0 mi ENE 8.1 mph - 0.07 in Rain , Thunderstorm Light Thunderstorms and Rain
5:53 PM 62.1 °F 55.0 °F 78% 29.94 in 10.0 mi NNW 16.1 mph 21.9 mph 0.09 in Rain , Thunderstorm Light Thunderstorms and Rain
6:53 PM 62.1 °F 55.9 °F 80% 29.96 in 4.0 mi North 10.4 mph - 0.08 in Rain , Thunderstorm Heavy Thunderstorms and Rain
7:03 PM 61.0 °F 53.1 °F 75% 30.09 in 1.8 mi Variable 5.8 mph 18.4 mph 0.07 in Rain , Thunderstorm Heavy Thunderstorms and Rain
7:12 PM 60.1 °F 53.1 °F 78% 30.09 in 3.0 mi SSE 3.5 mph - 0.07 in Rain , Thunderstorm Light Thunderstorms and Rain
7:53 PM 60.8 °F 51.8 °F 72% 30.09 in 7.0 mi West 3.5 mph - N/A Rain Light Rain
8:00 PM 61.0 °F 52.0 °F 72% 30.09 in 10.0 mi NW 4.6 mph - 0.00 in Thunderstorm Thunderstorm
8:18 PM 61.0 °F 54.0 °F 78% 30.09 in 10.0 mi NNE 6.9 mph - 0.00 in   Overcast
8:53 PM 60.8 °F 53.6 °F 77% 30.10 in 10.0 mi East 10.4 mph - N/A   Clear
9:53 PM 61.0 °F 52.0 °F 72% 29.94 in 10.0 mi ENE 8.1 mph - N/A   Partly Cloudy
10:53 PM 60.1 °F 52.0 °F 75% 29.94 in 10.0 mi NNW 8.1 mph - 0.00 in Rain Light Rain
11:53 PM 59.0 °F 54.0 °F 83% 29.94 in 10.0 mi ESE 5.8 mph - 0.00 in   Overcast